Wind_Speed
31 31 30 29 29 29 28 27 25 24 24 24 22 21 21 20 20 20 18 18 18 17 17 16 17 17 17 17 16 16 16 17 18 18 17 18 17 17 17 18 18 19 19 19
30 30 29 29 29 29 28 27 26 25 24 24 22 21 21 20 20 20 19 18 18 17 17 17 17 17 17 16 16 17 18 18 18 17 17 17 17 18 19 19 19 19 19 19
28 29 29 29 29 29 28 26 25 25 24 23 22 21 21 21 20 20 19 19 18 17 16 16 16 16 17 17 17 17 18 17 17 17 16 16 17 17 18 18 19 19 20 20
27 29 27 28 28 27 27 26 25 24 24 23 22 21 21 21 21 20 19 19 18 18 17 17 16 16 16 17 18 18 18 17 17 17 16 17 17 17 18 19 19 19 20 21
27 27 28 28 27 26 26 25 25 24 23 22 22 22 22 22 21 20 20 20 20 19 18 17 17 16 15 16 17 18 18 18 18 18 18 19 19 19 19 19 20 21 21 21
28 26 26 26 26 25 25 25 24 24 23 22 22 22 22 22 22 21 21 21 20 20 19 18 17 16 16 16 17 18 18 19 19 19 19 19 20 19 19 19 20 21 21 20
27 26 26 26 25 24 25 25 24 24 23 23 23 23 23 23 23 22 21 21 20 20 20 19 18 18 17 17 18 18 19 19 20 20 20 19 19 19 20 20 21 22 22 21
28 26 26 24 24 25 24 24 23 23 23 24 25 24 24 24 23 23 22 21 21 21 20 20 19 19 19 19 19 20 20 20 20 20 20 20 19 20 20 20 21 21 22 22
29 28 26 24 24 24 24 24 24 24 24 24 25 25 25 24 24 23 23 23 22 22 21 20 21 21 20 20 20 20 20 20 20 20 20 20 20 20 20 20 21 21 21 21
29 28 26 25 25 25 24 24 24 24 24 24 24 25 25 25 24 23 23 23 23 23 22 22 22 22 22 22 21 20 19 19 19 19 19 19 19 19 20 20 20 21 21 21
28 27 27 26 26 25 25 25 25 25 25 25 25 25 25 25 25 25 24 23 23 22 22 22 23 23 23 23 22 21 20 19 19 19 19 20 20 20 21 21 21 22 23 23
29 28 27 27 26 26 26 25 25 25 26 25 25 25 25 25 26 26 25 24 23 22 22 22 22 23 23 23 22 22 21 21 21 21 21 21 22 22 22 22 23 23 24 24
29 29 28 28 27 27 27 26 26 25 26 26 26 26 25 25 25 26 25 24 23 23 23 22 21 21 22 23 22 21 21 21 22 22 21 21 22 22 22 22 23 24 24 25
29 29 29 29 28 27 27 27 27 26 26 27 27 26 26 25 25 24 24 23 23 23 23 22 21 20 20 21 20 20 20 21 20 20 21 21 21 22 22 22 23 24 25 26
29 29 29 28 28 27 27 27 27 27 26 27 26 26 26 25 25 24 24 23 23 22 22 21 21 20 20 19 19 19 18 18 18 19 19 20 21 21 22 22 22 23 25 26
29 29 28 28 27 28 27 27 26 26 26 26 26 26 26 26 25 24 24 23 23 22 22 22 21 21 20 19 19 18 18 17 17 18 19 20 20 21 22 23 24 25 26 27
29 29 29 28 28 27 27 27 26 26 25 25 25 25 24 24 24 24 23 23 22 22 22 21 21 20 20 19 19 19 19 18 18 19 20 21 22 22 23 24 25 26 27 28
29 29 28 28 28 27 26 25 25 25 25 24 25 24 23 23 23 23 22 22 22 22 21 20 19 19 19 19 20 19 19 19 20 20 21 22 23 23 25 25 26 27 28 28
27 28 28 27 27 26 25 24 25 25 24 24 23 22 22 22 22 22 22 21 21 20 20 19 19 19 19 19 19 19 19 19 20 19 20 21 23 24 25 26 27 27 28 28
26 27 28 27 26 25 25 24 25 24 24 23 23 22 22 21 21 21 20 20 19 18 18 18 18 19 20 20 20 19 19 19 19 20 21 22 23 24 26 26 27 27 28 28
25 25 26 26 26 25 25 25 24 24 23 23 22 22 21 20 20 20 20 20 19 18 18 18 18 18 19 19 19 19 19 19 20 21 22 23 24 25 26 26 26 27 27 27
25 25 25 25 25 24 23 24 24 23 23 23 21 21 20 20 19 19 18 18 18 18 18 17 17 17 17 18 19 19 20 20 21 22 23 24 25 25 25 26 26 26 27 28
25 25 25 24 24 23 23 23 24 23 22 21 20 19 19 18 17 17 17 16 16 16 16 16 16 17 17 18 18 19 20 21 22 22 23 24 25 25 26 26 26 27 28 29
24 25 24 24 24 23 23 22 22 21 21 21 20 19 18 17 16 16 16 16 16 16 16 16 17 17 18 19 19 20 21 21 22 23 24 25 25 25 26 27 27 28 29 29
22 23 23 22 22 22 22 21 21 21 20 20 19 18 17 16 16 16 15 15 15 16 16 17 17 18 19 20 20 20 21 21 22 23 23 24 25 26 27 27 27 28 28 28
21 21 21 21 20 20 20 19 19 18 17 17 16 16 16 16 16 16 15 15 16 16 17 17 18 19 19 19 19 19 20 20 21 23 24 25 25 26 26 26 27 27 28 28
21 21 20 18 18 18 17 17 16 16 16 15 15 15 14 14 15 15 15 15 15 16 16 17 17 17 17 17 18 19 20 21 22 23 24 25 25 26 26 26 26 26 27 27
Wind_Direction
215 220 222 222 223 224 225 226 230 234 235 242 242 242 242 243 243 242 244 249 251 252 254 255 258 263 266 266 267 268 268 267 269 269 270 272 274 275 277 281 280 279 279 277
216 219 219 220 221 223 224 225 229 233 237 239 241 240 241 241 241 240 241 245 247 249 252 254 259 262 263 264 266 268 268 269 271 271 270 273 273 273 275 278 279 279 278 278
214 217 219 221 221 223 225 227 230 234 237 238 238 236 236 237 238 237 239 242 245 248 251 256 263 266 264 261 263 266 268 271 272 273 271 270 271 274 273 275 278 281 281 280
214 217 219 222 222 223 226 228 230 233 236 237 235 232 231 232 233 235 237 240 244 247 254 260 266 271 265 263 264 267 269 271 272 272 272 271 271 273 273 275 278 281 284 284
214 218 222 224 224 224 227 230 231 233 235 233 232 231 231 232 234 237 240 242 245 250 256 261 264 268 266 266 266 267 269 272 272 272 273 273 271 272 274 275 278 282 285 285
214 217 224 224 224 224 226 229 229 231 232 231 230 230 231 233 236 238 241 244 247 251 255 258 261 264 265 266 266 267 269 270 272 273 274 274 272 274 277 278 281 282 283 282
216 218 223 223 223 223 225 226 227 229 230 229 228 229 230 233 236 238 241 243 246 250 254 255 257 259 264 266 268 270 271 270 270 271 272 273 274 276 278 280 282 282 282 282
217 219 223 220 221 222 223 225 226 228 228 229 230 230 230 232 235 238 240 242 246 251 253 254 255 259 265 267 268 270 271 272 271 271 271 274 276 277 279 281 283 282 283 284
216 218 220 220 222 222 223 225 227 228 227 228 229 229 230 232 235 238 241 243 246 248 251 253 255 261 264 266 268 270 271 270 271 271 271 272 274 278 280 281 283 284 284 285
219 219 220 220 221 223 224 226 227 228 227 228 228 228 229 232 235 238 240 242 245 247 250 253 256 259 262 264 266 268 268 267 268 269 270 271 274 278 280 281 282 284 285 287
219 220 221 221 222 223 224 226 228 228 228 229 228 227 231 233 235 238 239 241 244 246 251 254 256 259 262 262 261 264 266 267 269 271 273 274 276 278 280 281 281 283 285 287
219 219 220 221 223 224 225 228 229 229 228 228 228 229 232 234 235 235 237 241 245 248 253 258 259 260 261 261 262 263 265 268 270 273 274 275 277 278 280 282 282 285 288 290
221 220 221 222 223 225 226 228 229 229 228 228 228 229 231 234 235 236 238 241 245 249 254 258 259 260 262 262 262 263 266 269 272 275 276 277 279 280 282 283 284 286 288 290
221 220 222 223 224 224 225 227 228 229 229 229 230 232 234 235 235 235 236 240 245 249 253 256 257 258 262 263 261 263 266 269 272 275 277 279 280 282 283 284 287 289 290 292
219 220 221 223 223 223 224 225 227 228 228 229 231 233 235 235 235 236 238 241 245 248 252 253 254 257 262 261 260 262 264 268 271 275 277 280 283 285 286 287 289 291 293 295
219 219 220 221 221 221 223 224 225 226 228 230 231 233 233 233 234 235 237 241 245 248 250 252 252 256 258 260 259 263 267 269 273 277 280 282 284 285 287 289 292 293 295 296
217 217 218 218 219 220 222 224 225 225 226 227 227 229 229 230 232 235 239 240 242 246 248 250 253 256 258 261 264 267 268 269 273 278 281 283 285 286 289 292 295 296 297 298
215 215 214 215 217 219 220 221 221 221 224 225 225 225 225 228 231 235 237 240 244 243 245 247 251 255 260 264 266 268 268 272 276 279 282 285 288 289 292 294 297 299 299 300
210 210 210 211 212 214 214 214 215 217 221 222 223 223 225 228 232 236 238 241 239 238 241 245 251 256 261 263 264 267 272 276 278 281 285 289 291 293 295 296 298 299 301 301
205 205 204 204 207 208 209 213 214 217 219 221 221 223 225 228 231 233 235 234 235 238 241 247 253 259 261 263 266 270 275 279 282 285 289 292 294 295 296 298 299 300 302 303
204 201 200 203 206 208 210 211 212 213 216 218 221 222 224 226 227 229 232 234 237 240 244 250 255 260 262 266 269 273 277 282 286 289 292 294 296 297 298 299 300 302 303 303
202 201 202 203 205 207 208 209 211 212 214 216 218 219 219 221 224 227 230 235 239 243 246 251 257 262 267 270 273 276 279 283 287 291 294 296 298 298 299 300 301 302 303 305
198 200 200 201 203 204 206 208 210 210 211 211 210 213 215 218 224 230 233 237 243 246 248 253 260 265 269 272 275 278 282 286 289 293 295 297 298 298 299 301 301 302 303 305
196 195 196 198 199 201 203 205 205 205 206 208 211 214 216 221 226 232 236 240 246 250 254 259 263 267 272 275 279 282 285 288 291 294 295 296 297 299 300 301 301 302 303 305
190 190 191 193 194 197 200 202 203 204 207 209 211 214 218 223 228 233 239 244 249 254 259 263 267 270 274 280 283 285 288 291 293 295 296 297 298 300 301 302 303 304 304 305
185 186 187 188 191 193 196 197 199 202 205 207 210 216 222 226 231 237 242 248 255 260 264 268 272 275 280 284 285 287 290 293 294 296 298 300 301 303 304 304 305 306 306 307
184 183 184 187 190 193 193 196 199 203 207 211 215 220 225 229 234 239 245 251 256 263 270 273 277 282 284 285 287 289 292 295 298 299 301 302 304 305 305 305 306 306 308 309
Height
5813 5817 5823 5828 5832 5836 5841 5846 5851 5854 5857 5859 5861 5863 5865 5867 5869 5870 5872 5873 5874 5875 5875 5876 5876 5876 5876 5876 5876 5876 5876 5875 5875 5874 5873 5873 5873 5873 5873 5872 5872 5872 5871 5870
5808 5813 5818 5822 5827 5831 5836 5840 5845 5848 5851 5853 5855 5858 5860 5862 5864 5865 5867 5868 5870 5870 5871 5872 5872 5872 5872 5872 5872 5872 5872 5871 5871 5869 5869 5869 5869 5869 5869 5868 5868 5867 5867 5866
5805 5808 5813 5817 5822 5826 5831 5835 5839 5843 5846 5848 5850 5852 5855 5856 5858 5860 5862 5864 5865 5866 5867 5867 5868 5867 5867 5867 5867 5867 5867 5867 5866 5866 5865 5865 5864 5864 5863 5864 5864 5863 5863 5862
5800 5804 5809 5815 5817 5821 5826 5830 5833 5836 5839 5842 5845 5847 5849 5851 5854 5856 5858 5859 5861 5862 5863 5863 5863 5863 5862 5862 5863 5863 5863 5863 5862 5862 5861 5861 5860 5860 5860 5860 5859 5858 5858 5857
5796 5800 5804 5808 5812 5816 5820 5824 5828 5831 5834 5837 5839 5842 5845 5847 5849 5851 5853 5855 5856 5857 5858 5859 5859 5859 5858 5858 5858 5859 5858 5858 5858 5857 5857 5857 5856 5856 5856 5855 5855 5854 5853 5852
5791 5796 5800 5804 5808 5811 5817 5819 5822 5825 5828 5831 5834 5838 5840 5842 5844 5846 5848 5850 5851 5852 5853 5854 5855 5855 5855 5855 5854 5854 5854 5854 5853 5853 5853 5852 5852 5852 5852 5851 5850 5849 5848 5847
5785 5790 5795 5798 5802 5807 5812 5815 5817 5820 5823 5826 5829 5832 5835 5837 5839 5841 5843 5845 5846 5847 5848 5849 5850 5850 5850 5850 5850 5849 5849 5849 5848 5848 5848 5848 5848 5847 5847 5846 5845 5844 5843 5842
5780 5786 5791 5793 5797 5801 5805 5808 5811 5814 5817 5820 5823 5826 5829 5831 5834 5836 5838 5840 5841 5842 5843 5844 5844 5845 5845 5845 5844 5844 5844 5843 5843 5843 5844 5843 5843 5843 5842 5841 5840 5839 5837 5836
5775 5781 5784 5788 5792 5795 5799 5802 5805 5808 5812 5814 5817 5820 5823 5826 5828 5831 5833 5834 5836 5837 5838 5839 5839 5840 5840 5840 5839 5839 5838 5838 5838 5838 5838 5838 5838 5837 5836 5835 5834 5833 5832 5831
5769 5774 5778 5782 5786 5789 5793 5796 5799 5802 5806 5809 5812 5815 5818 5820 5823 5825 5827 5829 5830 5832 5833 5833 5834 5834 5834 5834 5834 5834 5834 5833 5834 5833 5833 5833 5833 5832 5831 5830 5829 5827 5826 5825
5763 5768 5772 5776 5780 5784 5787 5790 5793 5796 5799 5803 5806 5809 5812 5814 5817 5819 5821 5823 5825 5826 5827 5828 5828 5828 5829 5828 5828 5829 5829 5829 5829 5828 5828 5828 5827 5826 5825 5824 5823 5822 5820 5818
5757 5762 5766 5770 5774 5777 5781 5784 5787 5790 5793 5797 5800 5803 5806 5808 5811 5813 5816 5818 5819 5820 5821 5822 5822 5823 5823 5823 5823 5823 5823 5823 5823 5823 5823 5822 5822 5821 5819 5818 5817 5815 5814 5812
5751 5755 5760 5764 5768 5771 5775 5778 5781 5784 5787 5791 5794 5797 5800 5803 5805 5808 5810 5812 5813 5815 5815 5816 5816 5817 5817 5817 5817 5817 5817 5817 5817 5817 5817 5816 5815 5814 5813 5812 5811 5809 5807 5805
5744 5749 5753 5757 5761 5765 5768 5771 5775 5778 5782 5785 5788 5791 5794 5797 5799 5802 5804 5806 5808 5809 5810 5810 5811 5811 5811 5811 5811 5812 5812 5812 5811 5811 5811 5810 5809 5808 5807 5805 5804 5802 5800 5798
5737 5742 5747 5751 5755 5758 5762 5765 5769 5772 5776 5779 5782 5785 5788 5791 5794 5796 5798 5800 5802 5803 5804 5805 5806 5806 5806 5806 5806 5806 5806 5806 5806 5806 5805 5804 5803 5802 5800 5799 5797 5795 5793 5791
5731 5736 5740 5744 5748 5752 5756 5759 5763 5766 5770 5773 5776 5779 5782 5785 5788 5790 5793 5795 5796 5798 5799 5800 5801 5801 5801 5801 5801 5801 5801 5801 5801 5800 5799 5798 5797 5796 5794 5792 5790 5788 5786 5783
5725 5729 5734 5738 5742 5746 5750 5754 5757 5760 5763 5767 5770 5773 5776 5779 5782 5785 5787 5789 5791 5792 5793 5794 5795 5796 5796 5797 5797 5797 5796 5796 5795 5795 5794 5792 5791 5790 5788 5785 5783 5781 5778 5775
5718 5723 5728 5732 5736 5740 5744 5748 5752 5755 5758 5761 5764 5767 5771 5774 5777 5779 5781 5783 5785 5787 5788 5789 5790 5790 5791 5791 5792 5791 5791 5790 5790 5789 5788 5786 5785 5783 5781 5778 5776 5773 5770 5767
5713 5718 5722 5726 5731 5735 5739 5743 5746 5750 5753 5756 5759 5763 5766 5769 5771 5774 5776 5778 5780 5781 5783 5784 5785 5786 5786 5786 5786 5786 5785 5784 5784 5783 5781 5780 5778 5776 5774 5771 5768 5765 5762 5759
5708 5712 5717 5722 5726 5730 5734 5738 5742 5745 5748 5752 5755 5758 5761 5764 5766 5769 5771 5773 5775 5776 5778 5779 5780 5780 5780 5780 5780 5780 5779 5779 5778 5777 5775 5773 5771 5769 5766 5764 5761 5758 5755 5752
5704 5708 5713 5717 5722 5726 5730 5734 5737 5741 5744 5747 5751 5753 5756 5759 5762 5764 5766 5769 5770 5772 5773 5774 5775 5775 5775 5775 5775 5774 5773 5773 5772 5770 5768 5766 5764 5762 5759 5756 5753 5750 5747 5744
5700 5705 5710 5714 5718 5722 5726 5730 5733 5736 5740 5743 5746 5749 5752 5755 5758 5760 5762 5764 5765 5767 5768 5769 5769 5770 5770 5770 5769 5768 5768 5767 5765 5764 5761 5759 5757 5754 5752 5749 5746 5743 5740 5736
5698 5702 5707 5711 5715 5718 5722 5726 5729 5733 5736 5740 5743 5746 5749 5751 5754 5756 5758 5759 5761 5762 5763 5764 5764 5764 5764 5764 5763 5763 5761 5760 5759 5757 5754 5752 5750 5747 5745 5742 5739 5736 5732 5728
5695 5700 5704 5708 5712 5716 5720 5723 5726 5730 5733 5736 5740 5743 5745 5748 5750 5752 5753 5755 5756 5757 5758 5759 5759 5759 5759 5758 5758 5756 5755 5754 5752 5750 5748 5745 5743 5740 5737 5734 5731 5728 5724 5720
5694 5698 5702 5706 5710 5714 5718 5721 5724 5728 5731 5734 5737 5739 5742 5744 5746 5748 5749 5751 5752 5753 5753 5754 5754 5754 5753 5753 5751 5750 5749 5747 5745 5743 5741 5739 5736 5733 5730 5727 5723 5720 5716 5712
5693 5697 5701 5705 5709 5713 5716 5719 5722 5726 5729 5731 5734 5736 5739 5741 5742 5744 5745 5746 5748 5748 5749 5749 5748 5748 5747 5746 5745 5744 5742 5741 5739 5736 5734 5731 5729 5725 5722 5719 5716 5712 5708 5705
5693 5697 5701 5704 5708 5711 5714 5717 5721 5723 5726 5729 5731 5733 5735 5737 5739 5740 5741 5742 5743 5744 5744 5743 5743 5742 5741 5740 5739 5738 5736 5734 5732 5730 5727 5724 5721 5718 5715 5711 5708 5705 5701 5698